Location: Newark
(45.5000°N, 11.4167°E)
Time: 19:09:01
(UTC+00:00)

Explorer 11/Cluster Stage 4 - Pass Details

Date: 22 August 2019
Orbit: 467 x 1259 km, 28.8° (Epoch: 13 October)

Event Time Altitude Azimuth Distance (km) Brightness Sun altitude
Rises 09:47:09 0° 216° (SW) 4,156 10.4 51.2°
Reaches altitude 10° 09:51:19 10° 198° (SSW) 3,226 10.2 51.7°
Maximum altitude 09:56:01 16° 163° (SSE) 2,749 10.3 52.1°
Drops below altitude 10° 10:00:37 10° 128° (SE) 3,160 10.4 52.6°
Sets 10:04:38 0° 109° (ESE) 4,033 10.6 52.9°
